Temp
81 80 82 82 80 78 76 75 75 74 73 72 72 73 74 76 77 78 79 80 78 80 78 75 75 75 74 75 75 74 73 73 73 71 70 70 70 70 70 69 67 68 69
75 77 79 80 78 77 77 75 76 74 75 74 73 75 75 77 77 77 78 79 79 79 78 76 76 76 74 74 74 72 71 72 71 69 67 65 67 68 68 66 66 66 66
76 77 78 78 79 77 76 76 76 75 75 75 74 74 75 75 75 76 77 79 80 79 78 77 77 76 76 74 74 72 71 69 70 71 69 64 62 64 65 64 64 66 66
80 79 79 77 79 79 80 78 77 75 76 75 73 74 74 73 74 75 77 78 81 80 80 79 77 79 77 75 74 74 73 70 69 70 69 68 68 65 64 64 64 65 65
81 81 80 81 82 83 80 79 77 76 78 76 75 74 72 74 74 74 76 77 78 78 80 81 80 76 77 77 75 74 74 72 71 70 70 68 68 67 65 62 63 64 64
80 82 83 82 81 82 82 80 75 76 75 76 74 73 73 73 73 73 74 76 77 76 78 80 79 78 77 77 76 75 74 73 72 72 71 69 68 66 65 64 64 62 64
82 80 79 79 79 80 81 80 76 75 75 75 75 74 73 73 73 73 74 75 76 76 78 78 77 78 78 77 76 75 74 73 72 72 71 70 69 68 66 65 63 61 64
83 81 81 80 81 81 80 81 78 78 74 76 76 75 73 75 75 74 74 75 75 76 78 78 77 79 78 77 77 74 74 74 73 73 71 71 70 69 67 67 64 61 63
80 83 83 82 80 82 81 81 80 78 76 77 78 74 74 73 73 73 75 76 76 78 78 78 78 77 77 77 76 73 73 73 73 73 72 71 71 70 68 67 66 64 60
81 83 83 84 82 78 77 79 81 78 79 78 78 78 76 75 75 72 73 75 76 76 77 78 77 77 77 77 75 73 73 74 73 72 72 71 70 70 68 66 67 65 63
75 78 79 78 79 78 77 75 76 77 77 77 78 77 76 75 74 74 74 74 74 75 75 76 76 76 77 76 75 74 73 72 72 71 71 70 69 69 68 66 64 64 64
74 75 75 75 76 76 75 74 73 77 80 78 77 76 76 74 73 74 75 74 74 74 75 75 75 75 75 76 75 75 73 72 72 70 69 68 70 68 68 65 66 64 62
72 73 73 73 74 74 74 75 75 77 80 76 76 75 75 74 75 76 75 73 74 74 74 74 74 75 76 75 76 74 73 72 72 70 68 68 68 69 67 66 65 64 61
70 70 69 70 72 73 74 75 77 77 75 75 75 74 74 77 78 76 75 74 74 74 73 73 74 75 76 76 75 73 72 72 71 69 68 68 70 70 67 66 64 62 59
69 68 67 67 69 71 72 74 75 77 74 73 73 73 74 75 75 76 75 75 74 76 75 73 73 75 76 75 73 72 72 71 69 68 68 68 71 70 68 66 62 60 58
67 67 68 68 68 68 70 72 72 73 75 74 73 74 73 73 74 74 74 74 75 75 73 73 74 74 75 67 68 70 71 70 69 67 66 66 69 68 67 68 66 63 60
66 66 66 66 66 67 68 67 68 68 69 71 71 71 71 72 73 73 73 73 74 75 73 73 74 74 73 64 64 67 71 69 68 67 65 66 66 68 65 65 65 65 65
66 66 65 66 65 65 66 66 66 66 65 66 68 69 69 70 73 73 73 75 74 73 74 74 75 74 70 62 62 65 70 68 68 67 66 64 63 65 63 62 61 61 62
65 65 66 66 65 65 65 66 65 65 66 65 66 67 68 68 70 71 72 73 73 72 75 75 75 73 67 60 60 64 69 67 67 67 66 64 63 61 61 61 60 59 60
65 65 65 66 66 64 65 66 64 64 64 65 66 67 67 66 67 69 70 72 72 73 73 74 71 65 65 58 58 62 69 66 64 64 66 64 65 60 59 61 59 58 59
64 65 65 64 64 65 64 64 62 64 64 64 65 66 66 66 66 67 67 68 71 71 70 66 64 63 64 62 60 59 66 66 64 64 64 64 60 57 57 59 60 60 59
66 67 63 62 63 63 62 61 62 65 63 63 64 64 65 66 67 64 64 66 65 66 66 63 62 64 64 61 60 59 59 63 65 64 64 63 57 55 55 58 58 58 59
60 62 60 60 61 62 61 59 62 62 63 62 62 63 64 64 64 63 62 63 65 65 64 62 61 62 63 62 58 60 61 58 66 68 64 59 54 54 55 57 56 56 59
60 60 60 60 60 60 61 60 61 63 61 60 61 62 62 62 63 62 60 61 63 63 64 62 61 61 62 62 64 66 64 61 63 63 62 60 59 59 60 58 58 60 58
56 57 58 60 60 61 60 60 61 60 60 59 60 60 61 61 62 62 60 59 60 62 63 64 64 61 61 63 55 59 63 63 62 59 58 56 56 57 56 56 58 60 58
59 59 58 57 59 58 59 61 60 59 59 57 58 59 60 61 62 60 55 52 51 48 46 46 52 63 55 55 51 50 50 49 52 57 56 56 57 57 55 55 55 57 59
MSLP
1008.81 1009.33 1009.82 1010.35 1011.00 1011.60 1012.09 1012.32 1012.70 1012.85 1013.24 1013.64 1013.86 1014.04 1014.07 1013.95 1013.71 1013.43 1013.32 1013.41 1013.48 1013.54 1013.66 1013.94 1014.19 1014.14 1014.37 1014.32 1014.30 1014.44 1014.37 1014.16 1013.96 1014.03 1013.77 1013.57 1013.42 1013.34 1013.45 1013.42 1013.49 1013.60 1013.75
1008.88 1009.11 1009.52 1010.17 1010.61 1010.99 1011.55 1012.08 1012.26 1012.45 1012.71 1013.06 1013.43 1013.64 1013.80 1013.73 1013.66 1013.36 1013.11 1013.22 1013.28 1013.54 1013.67 1013.93 1014.07 1014.22 1014.32 1014.22 1014.36 1014.55 1014.57 1014.32 1014.23 1014.46 1014.46 1014.18 1013.91 1013.61 1013.51 1013.63 1013.72 1013.88 1014.05
1008.55 1008.86 1009.34 1009.70 1010.28 1010.84 1011.20 1011.48 1011.76 1012.07 1012.35 1012.60 1013.23 1013.63 1013.81 1013.87 1013.79 1013.57 1013.40 1013.13 1013.21 1013.38 1013.43 1013.50 1013.73 1013.96 1014.04 1013.99 1014.04 1014.44 1014.63 1014.62 1014.18 1014.16 1014.30 1014.45 1014.51 1014.11 1013.90 1013.89 1013.96 1014.15 1014.20
1007.80 1008.31 1008.88 1009.45 1009.69 1009.98 1010.57 1010.93 1011.33 1011.74 1012.07 1012.38 1012.93 1013.45 1013.72 1013.99 1013.90 1013.75 1013.43 1013.17 1012.82 1012.85 1013.11 1013.20 1013.35 1013.70 1013.89 1013.92 1014.04 1013.90 1013.88 1014.20 1014.20 1013.99 1013.89 1013.88 1014.07 1014.30 1014.15 1014.00 1014.10 1014.18 1014.35
1006.98 1007.55 1008.10 1008.39 1008.83 1009.54 1010.04 1010.43 1010.96 1011.49 1011.78 1012.22 1012.57 1013.09 1013.42 1013.50 1013.45 1013.60 1013.46 1013.14 1012.85 1012.67 1012.67 1012.91 1013.03 1013.50 1013.53 1013.58 1013.66 1013.92 1013.75 1013.94 1014.02 1013.99 1013.70 1013.58 1013.65 1013.86 1014.26 1014.10 1014.24 1014.31 1014.35
1006.40 1006.81 1007.24 1008.11 1008.73 1009.26 1009.77 1010.26 1010.75 1011.06 1011.47 1011.83 1012.21 1012.64 1013.03 1013.18 1013.37 1013.50 1013.53 1013.23 1012.88 1012.70 1012.53 1012.50 1012.66 1012.86 1013.12 1013.34 1013.39 1013.47 1013.53 1013.72 1013.63 1013.49 1013.35 1013.33 1013.50 1013.59 1013.87 1013.99 1014.07 1014.33 1014.49
1005.86 1006.28 1007.05 1007.62 1008.28 1008.85 1009.19 1009.77 1010.37 1010.83 1011.15 1011.51 1011.83 1012.12 1012.45 1012.75 1012.98 1013.16 1013.27 1013.13 1013.01 1012.67 1012.34 1012.39 1012.36 1012.53 1012.67 1013.03 1012.99 1013.11 1013.16 1013.22 1013.18 1013.11 1013.06 1012.93 1012.87 1013.10 1013.30 1013.51 1013.86 1014.24 1014.45
1005.16 1005.50 1006.27 1006.92 1007.42 1008.10 1008.69 1009.20 1009.75 1010.22 1010.71 1011.09 1011.30 1011.56 1011.82 1012.20 1012.36 1012.58 1012.85 1012.84 1012.86 1012.65 1012.44 1012.25 1012.25 1012.36 1012.38 1012.58 1012.71 1012.76 1012.80 1012.79 1012.68 1012.65 1012.71 1012.69 1012.59 1012.66 1012.84 1013.08 1013.59 1014.22 1014.36
1004.66 1004.85 1005.50 1006.04 1006.61 1007.35 1007.97 1008.49 1009.19 1009.75 1010.23 1010.40 1010.78 1011.20 1011.51 1011.85 1012.04 1012.14 1012.31 1012.38 1012.37 1012.37 1012.32 1012.29 1012.34 1012.41 1012.37 1012.34 1012.37 1012.59 1012.69 1012.72 1012.51 1012.47 1012.45 1012.50 1012.34 1012.32 1012.49 1012.70 1012.91 1013.37 1014.15
1004.36 1004.70 1005.01 1005.50 1006.28 1007.64 1008.30 1008.97 1009.17 1009.36 1009.52 1009.98 1010.41 1010.63 1010.92 1011.23 1011.49 1011.83 1012.00 1012.09 1012.08 1012.13 1012.16 1012.18 1012.15 1012.15 1012.12 1012.10 1012.25 1012.48 1012.53 1012.53 1012.42 1012.42 1012.38 1012.43 1012.41 1012.47 1012.58 1012.74 1012.88 1013.11 1013.57
1004.48 1004.89 1005.69 1006.08 1006.72 1007.22 1007.96 1008.30 1008.90 1008.99 1009.29 1009.52 1009.81 1010.23 1010.49 1010.79 1011.07 1011.30 1011.41 1011.58 1011.79 1011.79 1011.82 1011.88 1011.94 1011.94 1011.91 1012.06 1012.19 1012.29 1012.28 1012.36 1012.48 1012.60 1012.59 1012.56 1012.38 1012.62 1012.81 1013.03 1013.21 1013.41 1013.64
1005.70 1005.99 1006.38 1006.75 1007.09 1007.54 1008.15 1008.09 1008.93 1008.49 1008.65 1008.86 1009.34 1009.69 1009.98 1010.22 1010.60 1010.83 1010.87 1011.00 1011.19 1011.30 1011.36 1011.51 1011.56 1011.68 1011.84 1011.95 1012.05 1011.92 1011.98 1012.47 1012.43 1012.56 1012.61 1012.94 1012.82 1012.88 1012.98 1013.09 1013.34 1013.65 1013.89
1007.17 1007.31 1007.56 1007.94 1008.08 1008.34 1008.60 1008.53 1008.39 1008.22 1008.18 1008.47 1008.84 1009.21 1009.52 1009.82 1009.87 1009.81 1009.98 1010.29 1010.60 1010.80 1010.94 1011.14 1011.35 1011.56 1011.64 1011.64 1011.72 1011.66 1011.87 1012.05 1012.25 1012.34 1012.46 1012.52 1012.53 1012.92 1013.23 1013.25 1013.41 1013.79 1014.28
1008.87 1008.93 1008.97 1009.01 1008.90 1008.87 1008.83 1008.77 1008.58 1008.21 1007.81 1008.04 1008.56 1008.92 1009.15 1009.28 1009.43 1009.52 1009.47 1009.52 1009.82 1010.17 1010.30 1010.51 1010.76 1010.99 1010.99 1011.16 1011.41 1011.59 1011.70 1011.88 1012.09 1012.40 1012.38 1012.23 1012.16 1012.43 1013.00 1013.44 1013.83 1014.16 1014.69
1010.02 1010.13 1010.19 1010.36 1010.14 1009.75 1009.52 1009.21 1008.88 1008.55 1008.52 1008.96 1009.53 1009.63 1009.36 1009.22 1009.24 1009.25 1009.30 1009.39 1009.33 1009.27 1009.53 1010.06 1010.27 1010.25 1010.37 1010.69 1011.04 1011.18 1011.43 1011.79 1012.02 1012.43 1012.51 1012.40 1012.38 1012.40 1012.65 1013.03 1013.85 1014.42 1014.66
1011.20 1011.10 1011.09 1010.97 1010.79 1010.35 1010.19 1009.89 1009.86 1009.67 1009.47 1009.86 1010.02 1009.98 1009.52 1009.19 1009.08 1008.97 1008.89 1008.94 1008.91 1008.98 1009.11 1009.55 1009.88 1009.90 1009.91 1009.95 1010.21 1010.52 1011.08 1011.47 1011.96 1012.34 1012.52 1012.47 1012.60 1012.88 1013.07 1013.24 1013.48 1014.15 1014.68
1011.93 1011.97 1012.15 1012.13 1011.84 1011.34 1010.97 1010.86 1010.88 1010.71 1010.31 1010.35 1010.28 1010.16 1009.96 1009.72 1009.38 1008.94 1008.64 1008.52 1008.47 1008.59 1008.99 1009.07 1009.16 1009.27 1009.38 1009.60 1010.00 1010.54 1010.83 1011.30 1011.80 1012.22 1012.44 1012.50 1012.70 1012.81 1013.20 1013.54 1013.84 1013.82 1014.77
1012.71 1012.64 1012.59 1012.51 1012.22 1011.92 1011.70 1011.55 1011.45 1011.10 1010.81 1010.68 1010.63 1010.10 1010.12 1010.08 1009.74 1009.28 1008.70 1008.42 1008.07 1008.30 1008.38 1008.36 1008.20 1008.50 1008.99 1009.33 1009.52 1009.99 1010.41 1010.88 1011.30 1011.61 1011.95 1012.46 1012.81 1013.11 1013.30 1013.53 1013.95 1014.05 1014.23
1013.39 1013.32 1013.20 1012.99 1012.60 1012.38 1012.04 1011.52 1011.21 1011.08 1011.21 1011.42 1010.83 1010.37 1009.99 1009.86 1009.63 1009.32 1008.97 1008.43 1007.95 1007.81 1007.58 1007.11 1007.27 1007.96 1008.38 1009.01 1009.72 1010.43 1010.72 1011.36 1011.76 1012.03 1012.00 1012.00 1012.48 1012.92 1013.28 1013.46 1014.10 1014.38 1013.91
1013.34 1013.21 1013.01 1012.62 1012.12 1012.07 1011.47 1011.05 1011.50 1011.85 1012.09 1011.50 1010.84 1010.36 1010.04 1009.93 1009.75 1009.48 1008.89 1008.31 1007.73 1007.22 1006.91 1007.30 1007.52 1007.74 1009.24 1010.67 1010.99 1010.94 1010.52 1011.21 1011.96 1012.00 1011.78 1011.94 1012.54 1012.78 1013.15 1013.30 1013.95 1014.38 1014.04
1012.99 1012.69 1012.42 1012.39 1012.23 1011.84 1011.65 1012.10 1012.42 1012.37 1011.82 1011.36 1010.74 1010.28 1009.98 1009.74 1009.64 1009.54 1009.11 1008.44 1007.59 1007.06 1007.15 1007.47 1007.92 1008.19 1008.51 1008.86 1010.10 1010.73 1011.81 1011.06 1011.78 1011.91 1012.01 1011.92 1011.74 1012.86 1013.00 1012.90 1013.25 1013.88 1013.98
1013.44 1013.19 1013.22 1013.21 1013.05 1013.04 1012.98 1012.95 1012.48 1011.61 1011.29 1010.98 1010.59 1010.21 1009.77 1009.56 1009.35 1009.28 1009.20 1008.72 1008.25 1007.72 1007.63 1007.70 1008.02 1008.08 1007.88 1006.95 1006.39 1007.69 1007.47 1008.75 1010.22 1010.60 1011.14 1011.47 1011.46 1012.53 1012.87 1012.89 1012.83 1013.50 1013.95
1014.09 1013.85 1013.72 1013.46 1013.08 1012.89 1012.77 1012.79 1012.08 1011.55 1011.09 1010.59 1010.20 1009.89 1009.62 1009.25 1009.15 1009.11 1009.02 1008.93 1008.50 1008.40 1007.97 1007.91 1008.08 1008.19 1008.04 1007.75 1006.59 1005.46 1005.21 1007.22 1008.73 1008.83 1009.50 1010.42 1010.66 1011.68 1012.73 1012.64 1012.70 1013.27 1013.89
1013.93 1013.57 1013.36 1013.16 1012.88 1012.50 1012.11 1011.78 1011.39 1010.95 1010.81 1010.55 1009.98 1009.47 1009.13 1008.88 1008.71 1008.72 1008.79 1008.91 1008.81 1008.53 1008.48 1008.12 1008.00 1007.91 1007.65 1007.42 1007.07 1005.61 1005.66 1006.00 1006.79 1008.29 1009.26 1009.84 1010.96 1011.31 1011.83 1012.18 1012.36 1013.00 1013.50
1013.84 1013.56 1013.14 1012.66 1012.05 1011.62 1011.33 1010.98 1010.61 1010.42 1010.25 1009.89 1009.45 1009.03 1008.59 1008.27 1008.12 1008.21 1008.38 1008.44 1008.31 1008.39 1008.34 1007.99 1007.63 1007.60 1007.40 1007.09 1007.32 1007.39 1006.88 1007.79 1007.58 1008.60 1009.78 1010.48 1011.36 1011.87 1012.05 1012.08 1012.19 1012.70 1013.50
1013.45 1013.01 1012.48 1011.93 1011.27 1010.89 1010.47 1010.05 1009.67 1009.51 1009.35 1009.27 1008.90 1008.42 1008.00 1007.56 1007.44 1007.59 1007.93 1008.05 1007.86 1007.91 1008.14 1008.02 1007.85 1006.85 1006.63 1006.71 1006.62 1007.02 1007.17 1007.77 1008.33 1008.93 1009.71 1010.37 1010.92 1011.38 1011.53 1011.79 1012.29 1012.77 1013.34
Wind_Speed
11 10 12 13 11 9 9 9 8 8 4 2 2 0 2 3 3 4 6 5 5 6 5 3 3 3 3 3 2 1 3 3 2 3 4 2 3 0 1 2 0 2 4
7 9 11 12 14 15 13 10 11 8 7 4 3 2 2 3 3 3 4 4 5 5 5 5 5 4 4 4 2 2 2 2 2 1 0 4 4 2 3 1 1 3 3
11 11 12 14 13 13 14 13 12 9 7 7 3 1 1 1 2 2 3 4 5 6 6 6 5 4 3 4 4 3 4 2 3 3 2 2 4 2 2 4 3 3 3
10 12 13 12 15 16 13 12 11 9 9 7 5 6 4 4 3 2 2 5 7 5 5 6 6 5 4 4 4 3 4 2 3 2 3 3 1 2 4 1 1 2 3
14 14 15 17 16 14 13 13 11 9 10 8 7 6 5 4 1 2 4 5 5 5 5 6 5 6 4 3 4 3 3 2 2 3 2 2 1 3 3 4 1 1 2
11 13 14 11 11 10 11 11 10 11 9 10 9 9 9 7 3 3 4 4 3 3 4 6 5 5 5 4 4 4 4 3 4 3 3 2 2 2 3 3 1 1 1
12 11 12 12 10 12 13 10 10 12 9 10 10 10 9 8 8 6 4 5 3 3 5 4 5 4 5 3 4 3 3 3 2 3 2 2 3 2 2 2 2 2 1
12 14 15 13 14 15 14 13 13 14 9 11 12 9 8 6 6 6 5 4 4 4 3 3 3 5 5 4 4 2 2 4 3 4 3 3 2 3 3 3 3 2 1
10 15 15 15 15 15 16 16 13 12 9 12 10 8 7 8 7 7 5 4 4 4 5 4 4 4 4 4 4 2 5 4 2 3 2 2 1 1 1 2 3 4 3
13 10 13 15 9 6 5 6 9 11 12 10 9 9 8 8 7 6 7 7 6 5 5 4 4 5 5 5 4 4 3 4 1 2 2 2 1 1 2 2 2 1 3
7 8 7 7 7 8 7 8 7 8 8 9 10 9 8 7 6 7 8 8 6 6 6 6 6 7 6 4 4 5 4 1 1 2 2 3 1 2 2 2 2 1 2
12 11 10 8 6 5 4 8 8 9 10 8 8 9 7 7 7 8 8 7 8 7 7 7 6 6 5 5 5 5 1 2 2 1 3 4 3 3 3 2 3 3 3
14 13 13 10 10 8 6 7 3 6 7 7 8 7 8 8 11 11 9 7 8 7 7 6 7 6 6 6 6 4 4 4 3 4 1 1 2 3 2 2 4 3 4
11 11 11 10 10 9 8 9 10 8 5 6 6 6 6 9 9 8 8 9 9 8 8 7 7 7 7 6 5 5 4 4 4 4 2 1 1 5 5 3 4 5 5
11 10 9 8 7 9 9 10 12 17 12 8 6 5 4 4 5 6 6 7 7 9 8 6 6 7 6 5 6 6 6 6 6 4 2 3 3 7 6 5 5 6 4
9 8 8 8 8 8 8 10 11 12 12 12 11 9 7 6 5 6 7 7 8 9 6 6 7 7 5 10 13 8 6 6 6 5 3 4 5 5 6 9 10 8 8
7 7 6 5 5 7 7 9 7 5 8 8 7 8 9 9 9 7 6 8 9 7 7 7 8 8 7 12 11 8 6 7 6 6 5 4 3 5 5 7 10 10 6
6 5 4 4 4 3 4 4 4 6 6 7 5 5 6 7 7 7 7 9 6 6 7 9 10 8 7 14 13 11 7 6 6 7 7 6 5 4 6 7 6 5 5
3 2 2 1 1 3 1 4 7 7 8 6 6 6 5 7 8 10 11 10 6 5 9 9 10 10 7 14 11 8 6 5 4 4 5 7 7 8 9 7 6 4 3
4 5 4 1 5 5 6 9 9 7 6 5 5 4 5 6 6 9 11 10 9 9 6 5 5 9 8 14 12 7 4 5 2 2 5 10 8 12 10 7 6 5 4
9 9 9 9 8 8 9 7 4 6 6 6 5 4 4 5 4 5 5 8 9 1 6 10 9 11 12 15 15 12 11 3 3 4 4 4 13 14 12 9 7 6 4
12 11 8 8 7 7 6 8 9 7 6 6 7 7 5 3 3 5 4 6 5 2 8 8 8 7 10 18 29 24 11 7 9 8 5 5 13 12 11 9 9 7 4
6 5 6 7 7 7 4 5 8 8 8 7 7 7 7 5 3 3 4 3 2 3 5 5 6 7 5 6 18 28 27 20 13 10 11 13 16 14 8 8 10 9 4
9 7 8 9 9 8 8 8 8 8 7 8 8 7 6 7 5 3 2 3 4 4 4 5 6 7 6 6 7 9 6 13 14 10 9 10 8 8 7 5 6 5 5
6 7 10 12 13 11 10 9 8 7 8 8 8 8 6 7 5 6 4 4 6 4 5 7 7 8 10 10 2 5 5 4 6 10 5 4 4 4 3 3 4 5 4
12 11 11 12 13 10 11 12 9 8 8 8 7 7 6 6 5 6 4 10 10 8 6 12 10 7 8 7 8 8 8 11 13 4 4 4 5 6 5 5 4 3 5
Wind_Direction
212 184 185 180 169 175 178 183 178 200 158 152 164 213 228 258 274 259 236 234 220 231 241 225 254 274 272 252 220 279 311 313 332 358 331 330 11 26 91 156 148 349 334
181 183 174 174 180 183 189 189 197 184 188 169 165 165 177 245 260 294 286 218 207 224 236 235 231 238 228 239 247 218 284 280 307 198 359 328 327 305 216 184 221 266 325
192 188 180 185 182 188 192 194 197 189 195 193 125 111 32 353 336 308 282 250 234 220 219 228 230 230 230 217 226 209 221 270 302 210 188 315 258 323 65 244 245 281 300
197 188 189 190 191 198 195 197 195 189 199 188 167 179 183 203 211 241 258 272 271 245 226 222 221 226 231 221 219 201 216 183 260 314 238 257 214 252 318 294 259 247 292
190 190 195 199 199 194 192 194 192 196 200 191 196 186 198 216 199 258 284 284 284 263 224 219 207 230 233 240 222 253 230 206 251 217 266 278 256 221 230 287 245 36 353
188 197 200 194 202 196 191 186 186 203 193 195 195 189 199 208 210 240 259 278 313 268 234 234 230 234 246 224 239 226 229 239 239 249 237 218 241 260 223 245 185 108 58
195 193 184 188 190 196 193 188 184 205 196 198 201 206 206 201 206 222 241 269 291 299 274 255 249 216 232 226 232 236 260 259 242 252 270 224 228 188 210 195 150 135 154
198 190 189 195 196 196 196 194 193 209 193 201 215 213 206 206 213 198 209 242 222 255 280 316 274 232 190 198 234 227 258 245 233 270 240 264 252 189 192 189 143 115 135
201 201 187 191 196 196 198 199 200 210 204 210 213 210 207 205 210 209 202 224 228 238 249 265 248 244 211 219 222 225 242 238 272 282 289 261 260 196 202 166 157 152 153
218 199 183 194 193 169 205 216 215 209 211 209 215 222 213 209 214 193 214 217 233 231 253 254 231 215 221 223 199 233 262 254 305 303 322 329 315 348 59 111 144 157 132
95 106 107 116 131 145 171 201 211 209 208 202 210 213 213 212 208 208 218 216 214 217 227 233 215 221 225 231 227 235 254 236 333 336 47 6 40 18 82 95 83 83 101
69 71 72 78 75 90 183 201 202 220 214 207 204 213 213 196 199 215 223 214 219 216 216 213 211 224 233 231 232 239 231 229 177 143 26 359 351 58 89 120 107 104 77
61 67 65 64 61 55 52 44 343 260 218 188 197 200 207 203 216 214 209 206 218 223 212 201 211 218 232 225 228 214 198 212 167 152 115 344 44 118 135 130 113 102 94
59 63 54 48 52 50 47 40 34 8 248 187 188 205 215 224 230 235 212 203 207 224 224 211 212 215 227 218 198 190 189 188 154 137 140 146 149 151 163 133 120 110 106
62 56 53 39 33 53 50 47 42 39 39 44 16 336 305 261 248 240 225 226 216 219 226 212 212 222 212 194 182 190 182 172 150 146 124 58 92 144 155 140 141 130 116
58 51 46 41 33 34 40 44 45 46 55 53 46 24 359 318 272 253 234 220 227 231 211 200 217 216 213 182 185 172 174 165 158 162 135 100 110 125 145 140 140 153 146
77 71 65 55 41 30 27 44 38 39 55 58 43 24 360 348 340 304 260 241 236 227 223 214 205 222 206 181 180 182 170 164 169 162 154 128 126 134 137 128 135 140 171
53 56 55 52 33 39 57 64 28 38 55 48 31 32 19 355 339 331 316 284 259 234 222 222 218 201 196 183 177 182 166 162 173 168 159 144 156 151 144 137 139 148 158
72 41 355 327 31 39 308 68 41 33 31 11 7 5 10 359 354 349 338 323 285 246 230 222 216 201 186 184 175 173 161 164 173 171 152 145 151 154 149 140 150 186 200
20 19 334 317 34 357 17 32 16 5 343 333 338 346 358 355 341 335 330 320 305 263 246 283 14 50 62 38 3 314 146 151 157 166 154 159 161 157 161 153 158 183 223
357 354 11 4 346 354 7 8 326 310 283 293 303 318 331 329 315 314 318 314 306 115 103 104 95 104 120 101 69 31 303 157 186 193 190 174 164 174 177 165 166 195 170
351 353 353 344 334 336 345 319 309 291 287 294 305 300 276 276 309 324 321 319 312 123 121 120 124 139 149 149 138 150 148 183 189 193 191 183 170 181 183 180 182 183 157
307 299 296 298 297 294 264 270 274 294 301 302 285 279 289 285 254 281 317 311 280 288 149 148 152 169 183 195 176 158 168 189 200 187 185 175 173 172 178 189 180 159 167
305 298 297 287 278 267 272 259 273 278 273 271 276 273 260 267 258 218 219 262 256 229 222 191 179 190 211 222 224 186 193 192 185 169 164 160 170 164 153 136 158 169 173
265 261 269 275 277 279 273 266 260 268 272 269 264 263 258 250 245 240 221 213 243 246 229 221 212 205 221 230 336 303 168 196 158 123 117 120 142 162 163 137 153 146 166
286 280 272 269 268 261 265 271 265 252 259 263 264 255 255 253 237 240 231 228 230 263 268 269 258 262 243 236 175 138 118 128 137 100 145 146 168 178 170 159 160 151 179